Salida, CO

2:16 AM MDT on June 25, 2017 (GMT -0600)
Salida

Weather History for KANK - March, 2014

Change the Weather History Date:

Friday, March 7, 2014

  Actual Average (KGUC) Record (KGUC)
Temperature  
Mean Temperature 39 °F -  
Max Temperature 49 °F 35 °F 48 °F (1999)
Min Temperature 29 °F 11 °F -14 °F (2008)
Degree Days  
Heating Degree Days 26    
Moisture  
Dew Point 26 °F    
Average Humidity 68    
Maximum Humidity 98    
Minimum Humidity 31    
Precipitation  
Precipitation 0.00 in - - ()
Sea Level Pressure  
Sea Level Pressure 30.01 in    
Wind  
Wind Speed 9 mph (SW)    
Max Wind Speed 21 mph    
Max Gust Speed 31 mph    
Visibility 7 miles    
Events      
Averages and records for this station are not official NWS values.
T = Trace of Precipitation, MM = Missing Value Source: NWS Daily Summary

Daily Weather History Graph

Daily Weather History Graph

Search for Another Location

Airport or City:

Trip Planner

Search our weather history database for the weather conditions in past years. The results will help you decide how hot, cold, wet, or windy it might be!

Date:

Astronomy

Mar. 07, 2014 Rise Set
Actual Time 6:27 AM MST 6:03 PM MST
Civil Twilight 6:01 AM MST 6:29 PM MST
Nautical Twilight 5:30 AM MST 7:00 PM MST
Astronomical Twilight 4:59 AM MST 7:31 PM MST
Moon 10:26 AM MST (3/7) 12:06 AM MST (3/7)
Length of Visible Light 12h 28m
Length of Day
11h 35m
Waxing Crescent, 42% of the Moon is Illuminated
Mar 7
Waxing Crescent
Mar 8
First Quarter
Mar 16
Full
Mar 23
Last Quarter
Mar 30
New

Hourly Weather History & Observations

Time (MST) Temp. Windchill Dew Point Humidity Pressure Visibility Wind Dir Wind Speed Gust Speed Precip Events Conditions
12:15 AM 41.9 °F 33.7 °F 24.4 °F 50% 30.00 in 10.0 mi WSW 17.3 mph 31.1 mph N/A   Scattered Clouds
12:35 AM 41.7 °F 32.9 °F 24.1 °F 50% 29.98 in 10.0 mi WSW 19.6 mph 25.3 mph N/A   Scattered Clouds
12:55 AM 43.2 °F 34.5 °F 24.4 °F 48% 29.98 in 10.0 mi WSW 20.7 mph 28.8 mph N/A   Scattered Clouds
1:15 AM 43.3 °F 34.7 °F 23.9 °F 46% 29.98 in 10.0 mi WSW 20.7 mph 27.6 mph N/A   Scattered Clouds
1:35 AM 43.3 °F 38.1 °F 23.7 °F 46% 29.98 in 10.0 mi West 9.2 mph 21.9 mph N/A   Clear
1:55 AM 42.3 °F 35.5 °F 22.8 °F 46% 29.97 in 10.0 mi West 12.7 mph - N/A   Clear
2:15 AM 42.8 °F 36.2 °F 22.1 °F 44% 29.96 in 10.0 mi West 12.7 mph - N/A   Clear
2:35 AM 42.8 °F 38.6 °F 21.2 °F 42% 29.96 in 10.0 mi WSW 6.9 mph - N/A   Clear
2:55 AM 40.6 °F 33.4 °F 21.4 °F 46% 29.95 in 10.0 mi SW 12.7 mph - N/A   Clear
3:15 AM 41.0 °F 36.4 °F 20.3 °F 44% 29.95 in 10.0 mi WSW 6.9 mph - N/A   Clear
3:35 AM 36.7 °F 32.9 °F 21.7 °F 55% 29.95 in 10.0 mi NNW 4.6 mph - N/A   Scattered Clouds
3:55 AM 36.3 °F 29.5 °F 22.6 °F 58% 29.94 in 10.0 mi North 9.2 mph - N/A   Scattered Clouds
4:15 AM 38.7 °F - 22.1 °F 51% 29.95 in 10.0 mi Calm Calm - N/A   Clear
4:35 AM 34.3 °F - 21.4 °F 59% 29.95 in 10.0 mi Calm Calm - N/A   Clear
4:55 AM 32.0 °F 25.6 °F 21.0 °F 64% 29.95 in 10.0 mi ESE 6.9 mph - N/A   Clear
5:15 AM 34.7 °F 30.6 °F 22.1 °F 60% 29.96 in 10.0 mi WNW 4.6 mph - N/A   Mostly Cloudy
5:35 AM 34.9 °F - 22.1 °F 60% 29.96 in 10.0 mi Calm Calm - N/A   Overcast
5:55 AM 35.6 °F - 22.5 °F 59% 29.96 in 10.0 mi Calm Calm - N/A   Overcast
6:15 AM 32.4 °F - 22.5 °F 67% 29.96 in 10.0 mi Calm Calm - N/A   Overcast
6:35 AM 33.6 °F - 22.5 °F 64% 29.96 in 10.0 mi Calm Calm - N/A   Overcast
6:55 AM 35.8 °F - 22.6 °F 59% 29.96 in 10.0 mi Calm Calm - N/A   Overcast
7:15 AM 36.5 °F 32.7 °F 23.0 °F 58% 29.97 in 10.0 mi South 4.6 mph - N/A   Overcast
7:35 AM 36.0 °F - 22.8 °F 59% 29.97 in 10.0 mi Calm Calm - N/A   Overcast
7:55 AM 37.8 °F - 23.2 °F 56% 29.97 in 10.0 mi Calm Calm - N/A   Overcast
8:15 AM 37.6 °F 35.1 °F 23.0 °F 56% 29.97 in 10.0 mi SE 3.5 mph - N/A   Overcast
8:35 AM 38.3 °F 35.9 °F 22.5 °F 53% 29.96 in 10.0 mi East 3.5 mph - N/A   Overcast
8:55 AM 40.1 °F 36.9 °F 23.0 °F 51% 29.96 in 10.0 mi SE 4.6 mph - N/A   Overcast
9:15 AM 42.8 °F 40.1 °F 23.0 °F 46% 29.95 in 10.0 mi ESE 4.6 mph - N/A   Overcast
9:35 AM 45.1 °F 40.8 °F 25.5 °F 46% 29.94 in 10.0 mi SE 8.1 mph - N/A   Overcast
9:55 AM 45.9 °F 40.4 °F 26.4 °F 47% 29.93 in 10.0 mi SE 11.5 mph - N/A   Overcast
10:15 AM 46.6 °F - 25.7 °F 44% 29.93 in 10.0 mi SE 9.2 mph - N/A   Overcast
10:35 AM 47.1 °F - 25.3 °F 43% 29.92 in 10.0 mi ESE 9.2 mph - N/A   Overcast
10:55 AM 47.8 °F - 22.5 °F 37% 29.91 in 10.0 mi ESE 13.8 mph 18.4 mph N/A   Overcast
11:15 AM 49.1 °F - 20.5 °F 32% 29.91 in 10.0 mi SSE 10.4 mph 20.7 mph N/A   Overcast
11:35 AM 48.2 °F - 18.9 °F 31% 29.91 in 10.0 mi South 12.7 mph 29.9 mph N/A   Overcast
11:55 AM 47.3 °F - 19.4 °F 33% 29.91 in 10.0 mi SSW 13.8 mph 20.7 mph N/A   Overcast
12:15 PM 46.8 °F - 21.7 °F 37% 29.91 in 10.0 mi SW 13.8 mph 21.9 mph N/A   Overcast
12:35 PM 43.0 °F 34.8 °F 28.8 °F 57% 29.93 in 10.0 mi SW 18.4 mph - N/A   Overcast
12:55 PM 37.8 °F 31.3 °F 33.8 °F 86% 29.95 in 5.0 mi SW 9.2 mph - N/A   Overcast
1:15 PM 36.3 °F 33.7 °F 34.0 °F 91% 29.94 in 7.0 mi SE 3.5 mph - N/A   Overcast
1:35 PM 37.2 °F 31.9 °F 34.9 °F 91% 29.93 in 10.0 mi ESE 6.9 mph - N/A   Overcast
4:15 PM 34.7 °F - 33.3 °F 94% 29.99 in 1.2 mi North - - N/A   Overcast
4:35 PM 33.8 °F - 32.9 °F 96% 30.01 in 0.8 mi North - - N/A   Overcast
4:55 PM 33.8 °F - 32.7 °F 96% 30.03 in 0.8 mi North - - N/A   Overcast
5:15 PM 33.8 °F - 32.5 °F 95% 30.05 in 1.0 mi Calm Calm - N/A   Overcast
5:35 PM 33.3 °F 27.1 °F 32.2 °F 96% 30.06 in 0.8 mi NW 6.9 mph - N/A   Overcast
5:55 PM 32.9 °F 25.9 °F 32.0 °F 96% 30.07 in 1.0 mi NW 8.1 mph - N/A   Overcast
6:15 PM 32.9 °F 26.7 °F 32.0 °F 96% 30.07 in 1.8 mi NNW 6.9 mph - N/A   Overcast
6:35 PM 32.5 °F 26.2 °F 31.8 °F 97% 30.08 in 1.5 mi NW 6.9 mph - N/A   Overcast
6:55 PM 32.0 °F 26.4 °F 31.5 °F 98% 30.09 in 2.0 mi North 5.8 mph - N/A   Overcast
7:15 PM 32.0 °F 27.5 °F 31.1 °F 96% 30.10 in 2.0 mi NNW 4.6 mph - N/A   Overcast
7:35 PM 32.0 °F 27.5 °F 30.9 °F 96% 30.12 in 2.0 mi NW 4.6 mph - N/A   Overcast
7:55 PM 32.0 °F 24.8 °F 30.9 °F 96% 30.12 in 4.0 mi NW 8.1 mph - N/A   Overcast
8:15 PM 32.0 °F - 30.6 °F 94% 30.14 in 1.5 mi Calm Calm - N/A   Overcast
8:35 PM 32.0 °F 27.5 °F 30.6 °F 94% 30.15 in 2.5 mi NNE 4.6 mph - N/A   Overcast
8:55 PM 31.6 °F 28.3 °F 29.5 °F 92% 30.17 in 3.0 mi East 3.5 mph - N/A   Overcast
9:15 PM 31.1 °F 27.7 °F 28.9 °F 92% 30.17 in 3.0 mi ESE 3.5 mph - N/A   Overcast
9:35 PM 31.1 °F 27.7 °F 29.1 °F 92% 30.19 in 10.0 mi ENE 3.5 mph - N/A   Overcast
9:55 PM 30.7 °F - 29.3 °F 94% 30.19 in 7.0 mi Calm Calm - N/A   Overcast
10:15 PM 30.6 °F - 29.3 °F 95% 30.20 in 2.5 mi Calm Calm - N/A   Overcast
10:35 PM 30.4 °F - 29.3 °F 96% 30.20 in 2.5 mi Calm Calm - N/A   Overcast
11:15 PM 29.8 °F 26.3 °F 28.4 °F 94% 30.21 in 2.5 mi NNW 3.5 mph - N/A   Overcast
11:35 PM 29.8 °F 26.3 °F 28.4 °F 94% 30.21 in 4.0 mi North 3.5 mph - N/A   Overcast
11:55 PM 29.7 °F 23.7 °F 28.4 °F 95% 30.22 in 4.0 mi North 5.8 mph - N/A   Overcast